Powrót do katalogu

O3B FM3

AktywnyŁącznośćMEO
NORAD 40079·PAYLOAD·🇱🇺 Luxembourg

Wystrzelony Jul 10, 2014 z Guiana Space Centre

Loading…

Następne Przeloty (najbliższe 24 godziny)

TLE

ŚwieżeSource: CelesTrak SupGP

Epoka: Sep 14, 2026, 00:00 UTC

1 40079C 14038A   26257.00000000  .00000000  00000+0  00000+0 0  2573
2 40079   0.0486 354.1769 0003534 221.7640  41.2556  5.00115892    17

Śledź O3B FM3 w czasie rzeczywistym z AllMySat

Download on the App Store